Hourly Weather Abramow

Today, 27 July, Tuesday

Time Temperature Precipitation Wind Pressure Humidity
00:00 +20°C° 0 mm 3 mps 745 mmHg 84%
01:00 +19°C° 0 mm 2 mps 745 mmHg 83%
02:00 +19°C° 0 mm 2 mps 745 mmHg 84%
03:00 +19°C° 0 mm 2 mps 745 mmHg 84%
04:00 +19°C° 0 mm 2 mps 745 mmHg 84%
05:00 +22°C° 0.1 mm 1 mps 745 mmHg 81%
06:00 +23°C° 0.1 mm 1 mps 745 mmHg 77%
07:00 +25°C° 0.1 mm 1 mps 745 mmHg 73%
08:00 +26°C° 0 mm 1 mps 745 mmHg 67%
09:00 +28°C° 0 mm 1 mps 745 mmHg 62%
10:00 +29°C° 0 mm 1 mps 745 mmHg 57%
11:00 +30°C° 0 mm 2 mps 745 mmHg 54%
12:00 +31°C° 0 mm 2 mps 745 mmHg 51%
13:00 +33°C° 0 mm 3 mps 745 mmHg 47%
14:00 +31°C° 0 mm 3 mps 745 mmHg 48%
15:00 +31°C° 0 mm 3 mps 744 mmHg 49%
16:00 +32°C° 0 mm 4 mps 744 mmHg 49%
17:00 +29°C° 0 mm 3 mps 744 mmHg 55%
18:00 +28°C° 0 mm 2 mps 745 mmHg 61%
19:00 +26°C° 0 mm 2 mps 745 mmHg 67%
20:00 +25°C° 0 mm 2 mps 745 mmHg 69%
21:00 +24°C° 0 mm 2 mps 745 mmHg 72%
22:00 +23°C° 0 mm 2 mps 745 mmHg 75%
23:00 +23°C° 0 mm 1 mps 745 mmHg 76%

Tomorrow, 28 July, Wednesday

Time Temperature Precipitation Wind Pressure Humidity
00:00 +22°C° 0 mm 1 mps 745 mmHg 78%
01:00 +21°C° 0 mm 1 mps 745 mmHg 79%
02:00 +21°C° 0 mm 1 mps 745 mmHg 80%
03:00 +21°C° 0 mm 1 mps 745 mmHg 81%
04:00 +21°C° 0 mm 1 mps 745 mmHg 81%
05:00 +22°C° 0 mm 1 mps 745 mmHg 76%
06:00 +24°C° 0 mm 1 mps 745 mmHg 70%
07:00 +26°C° 0 mm 1 mps 745 mmHg 64%
08:00 +28°C° 0 mm 2 mps 745 mmHg 57%
09:00 +29°C° 0 mm 2 mps 745 mmHg 51%
10:00 +31°C° 0 mm 2 mps 745 mmHg 44%
11:00 +33°C° 0 mm 3 mps 744 mmHg 43%
12:00 +33°C° 0 mm 3 mps 744 mmHg 41%
13:00 +34°C° 0 mm 4 mps 743 mmHg 40%
14:00 +32°C° 1.1 mm 4 mps 743 mmHg 52%
15:00 +28°C° 1.1 mm 5 mps 742 mmHg 63%
16:00 +26°C° 1.1 mm 5 mps 742 mmHg 75%
17:00 +23°C° 2.8 mm 5 mps 742 mmHg 81%
18:00 +22°C° 2.8 mm 4 mps 743 mmHg 88%
19:00 +21°C° 2.8 mm 3 mps 743 mmHg 94%
20:00 +20°C° 0.1 mm 3 mps 744 mmHg 95%
21:00 +20°C° 0.1 mm 3 mps 744 mmHg 95%
22:00 +20°C° 0.1 mm 3 mps 745 mmHg 96%
23:00 +19°C° 0 mm 3 mps 745 mmHg 96%

Day after tomorrow, 29 July, Thursday

Time Temperature Precipitation Wind Pressure Humidity
00:00 +19°C° 0 mm 3 mps 745 mmHg 96%
01:00 +18°C° 0 mm 3 mps 745 mmHg 97%
02:00 +18°C° 0 mm 3 mps 745 mmHg 96%
03:00 +18°C° 0 mm 2 mps 745 mmHg 96%
04:00 +18°C° 0 mm 2 mps 745 mmHg 96%
05:00 +19°C° 0 mm 3 mps 745 mmHg 91%
06:00 +20°C° 0 mm 3 mps 745 mmHg 87%
07:00 +21°C° 0 mm 3 mps 745 mmHg 82%
08:00 +24°C° 0 mm 3 mps 745 mmHg 74%
09:00 +25°C° 0 mm 3 mps 746 mmHg 65%
10:00 +27°C° 0 mm 3 mps 746 mmHg 57%
11:00 +27°C° 0 mm 3 mps 745 mmHg 53%
12:00 +28°C° 0 mm 3 mps 745 mmHg 49%
13:00 +29°C° 0 mm 3 mps 745 mmHg 45%
14:00 +29°C° 0 mm 3 mps 745 mmHg 44%
15:00 +29°C° 0 mm 3 mps 745 mmHg 43%
16:00 +29°C° 0 mm 3 mps 744 mmHg 43%
17:00 +28°C° 0 mm 2 mps 744 mmHg 48%
18:00 +27°C° 0 mm 1 mps 744 mmHg 53%
19:00 +24°C° 0 mm 0 mps 744 mmHg 58%
20:00 +25°C° 0 mm 1 mps 744 mmHg 60%
21:00 +24°C° 0 mm 2 mps 744 mmHg 62%
22:00 +23°C° 0 mm 2 mps 744 mmHg 64%
23:00 +21°C° 0 mm 2 mps 744 mmHg 66%

30 July, Friday

Time Temperature Precipitation Wind Pressure Humidity
00:00 +20°C° 0 mm 2 mps 744 mmHg 68%
01:00 +20°C° 0 mm 2 mps 744 mmHg 69%
02:00 +20°C° 0 mm 2 mps 744 mmHg 70%
03:00 +19°C° 0 mm 2 mps 744 mmHg 71%
04:00 +19°C° 0 mm 2 mps 744 mmHg 73%
05:00 +20°C° 0.1 mm 2 mps 744 mmHg 71%
06:00 +22°C° 0.1 mm 3 mps 743 mmHg 69%
07:00 +24°C° 0.1 mm 3 mps 743 mmHg 68%
08:00 +26°C° 0 mm 3 mps 743 mmHg 63%
09:00 +27°C° 0 mm 2 mps 743 mmHg 58%
10:00 +29°C° 0 mm 2 mps 743 mmHg 54%
11:00 +29°C° 0 mm 3 mps 742 mmHg 55%
12:00 +29°C° 0 mm 4 mps 742 mmHg 56%
13:00 +28°C° 0 mm 4 mps 742 mmHg 57%
14:00 +28°C° 0.3 mm 4 mps 742 mmHg 58%
15:00 +28°C° 0.3 mm 3 mps 742 mmHg 60%
16:00 +27°C° 0.3 mm 3 mps 742 mmHg 62%
17:00 +26°C° 0.3 mm 2 mps 741 mmHg 66%
18:00 +25°C° 0.3 mm 2 mps 741 mmHg 70%
19:00 +23°C° 0.3 mm 1 mps 741 mmHg 74%
20:00 +23°C° 0 mm 1 mps 741 mmHg 75%
21:00 +22°C° 0 mm 1 mps 742 mmHg 76%
22:00 +21°C° 0 mm 1 mps 742 mmHg 76%
23:00 +21°C° 0 mm 1 mps 742 mmHg 77%

31 July, Saturday

Time Temperature Precipitation Wind Pressure Humidity
00:00 +20°C° 0 mm 1 mps 742 mmHg 77%
01:00 +20°C° 0 mm 1 mps 742 mmHg 77%
02:00 +20°C° 0 mm 1 mps 742 mmHg 76%
03:00 +18°C° 0 mm 2 mps 742 mmHg 75%
04:00 +18°C° 0 mm 2 mps 742 mmHg 74%
05:00 +19°C° 0 mm 2 mps 742 mmHg 69%
06:00 +21°C° 0 mm 2 mps 742 mmHg 65%
07:00 +23°C° 0 mm 2 mps 742 mmHg 60%
08:00 +24°C° 0 mm 2 mps 742 mmHg 56%
09:00 +25°C° 0 mm 3 mps 742 mmHg 51%
10:00 +27°C° 0 mm 3 mps 742 mmHg 47%
11:00 +27°C° 0 mm 4 mps 742 mmHg 45%
12:00 +28°C° 0 mm 4 mps 742 mmHg 44%
13:00 +28°C° 0 mm 4 mps 742 mmHg 42%
14:00 +28°C° 0 mm 4 mps 742 mmHg 43%
15:00 +28°C° 0 mm 4 mps 742 mmHg 43%
16:00 +28°C° 0 mm 3 mps 742 mmHg 44%
17:00 +26°C° 0 mm 3 mps 742 mmHg 50%
18:00 +24°C° 0 mm 3 mps 742 mmHg 57%
19:00 +21°C° 0 mm 3 mps 742 mmHg 64%
20:00 +20°C° 0 mm 2 mps 742 mmHg 65%
21:00 +21°C° 0 mm 1 mps 742 mmHg 66%
22:00 +20°C° 0 mm 1 mps 742 mmHg 67%
23:00 +20°C° 0 mm 1 mps 742 mmHg 67%

1 August, Sunday

Time Temperature Precipitation Wind Pressure Humidity
00:00 +18°C° 0 mm 2 mps 742 mmHg 68%
01:00 +18°C° 0 mm 2 mps 742 mmHg 68%
02:00 +18°C° 0 mm 2 mps 742 mmHg 71%
03:00 +18°C° 0 mm 2 mps 742 mmHg 74%
04:00 +18°C° 0 mm 2 mps 742 mmHg 77%
05:00 +19°C° 0.1 mm 2 mps 742 mmHg 77%
06:00 +19°C° 0.1 mm 2 mps 742 mmHg 77%
07:00 +20°C° 0.1 mm 2 mps 743 mmHg 78%
08:00 +23°C° 0.1 mm 2 mps 743 mmHg 69%
09:00 +24°C° 0.1 mm 2 mps 743 mmHg 60%
10:00 +26°C° 0.1 mm 2 mps 743 mmHg 52%
11:00 +27°C° 0.1 mm 2 mps 743 mmHg 48%
12:00 +27°C° 0.1 mm 1 mps 742 mmHg 45%
13:00 +28°C° 0.1 mm 1 mps 742 mmHg 41%
14:00 +27°C° 0.2 mm 2 mps 742 mmHg 46%
15:00 +27°C° 0.2 mm 2 mps 742 mmHg 51%
16:00 +26°C° 0.2 mm 3 mps 742 mmHg 56%
17:00 +24°C° 0.6 mm 3 mps 742 mmHg 66%
18:00 +21°C° 0.6 mm 3 mps 742 mmHg 75%
19:00 +19°C° 0.6 mm 2 mps 741 mmHg 85%
20:00 +19°C° 0 mm 2 mps 741 mmHg 85%
21:00 +18°C° 0 mm 2 mps 741 mmHg 86%
22:00 +18°C° 0 mm 2 mps 742 mmHg 86%
23:00 +18°C° 0.1 mm 2 mps 741 mmHg 87%
Show more